FW3886 Weather Reports


Display with metric or nautical units.
time (UTC)temp
F
wind
direction
speed
MPH
gust
MPH
rain 1hr
in
rain 24hr
in
rain mn
in
humidity
%
barometer
mb
20260509154002 74 17 0.0 0.0 0.00 0.00 0.00 86 1014.6
20260509133958 77 331 0.0 0.0 0.00 0.00 0.00 83 1015.0
20260509124000 76 345 0.0 0.0 0.00 0.00 0.00 87 1015.0
20260509114000 77 345 0.0 0.0 0.00 0.00 0.00 88 1014.9
20260509104000 77 345 0.0 0.0 0.00 0.00 0.00 92 1014.3
20260509093957 78 345 0.0 0.0 0.00 0.00 0.00 90 1013.7
20260509083958 84 345 0.0 0.0 0.00 0.00 0.00 79 1013.1
20260509073958 87 319 0.0 0.0 0.00 0.00 0.00 73 1012.3
20260509064001 89 173 0.0 0.0 0.00 0.00 0.00 72 1012.0
20260509054001 88 244 0.0 0.0 0.00 0.00 0.00 72 1012.2
20260509043956 88 18 0.0 0.0 0.00 0.00 0.00 71 1012.8
20260509033959 86 1 0.0 0.0 0.00 0.00 0.00 73 1013.5
20260509023959 84 341 0.0 0.0 0.00 0.00 0.00 75 1014.2
20260509013956 82 334 0.0 0.0 0.00 0.00 0.00 79 1015.2
20260509003955 79 30 0.0 0.0 0.00 0.00 0.00 78 1015.4
20260508233954 74 324 0.0 0.0 0.00 0.00 0.00 80 1015.8
20260508223958 71 348 0.0 0.0 0.00 0.00 0.00 84 1015.3
20260508213959 69 334 0.0 0.0 0.00 0.00 0.00 86 1014.6
20260508203955 69 354 0.0 0.0 0.00 0.00 0.00 86 1014.0
20260508193958 70 292 0.0 0.0 0.00 0.00 0.00 86 1013.5
20260508183955 70 337 0.0 0.0 0.00 0.00 0.00 86 1013.4